Temp
57 57 56 56 56 57 57 57 56 56 56 54 53 53 53 54 53 53 53 53 53 53 53 52 53 52 52 51 50 50 49 51 51 50 50 50 49 48 49 48 48 49
57 57 56 56 55 55 55 54 53 54 53 53 52 52 52 52 51 51 51 52 52 53 53 53 52 51 52 52 50 49 47 46 45 48 50 49 49 48 48 48 48 48
55 55 55 55 54 53 53 52 52 52 52 52 52 51 51 50 50 49 50 50 50 50 51 51 52 51 50 49 50 50 49 46 47 49 50 49 48 48 48 48 47 47
54 54 54 53 53 53 52 52 50 50 50 52 50 50 51 50 49 49 49 47 50 50 50 49 49 49 48 48 47 46 47 46 48 48 47 46 47 47 47 48 47 46
53 53 52 52 51 52 52 51 50 49 49 49 49 49 50 48 48 46 46 47 47 47 47 47 46 45 45 44 44 44 45 46 47 46 46 46 46 46 47 47 45 44
52 51 51 51 50 51 51 50 50 49 49 48 49 49 48 46 44 43 43 45 46 46 46 46 45 45 44 43 43 44 45 45 45 46 46 45 44 44 46 45 44 44
51 51 50 50 50 49 49 49 48 48 48 47 46 45 45 44 43 43 43 43 44 44 44 44 44 45 45 45 45 46 45 46 46 46 45 44 44 44 43 43 43 43
50 49 49 49 49 48 48 48 46 45 44 44 43 43 43 43 42 42 43 44 43 44 45 44 46 48 46 45 45 45 45 47 47 45 44 44 43 43 42 43 42 42
48 47 47 46 46 45 45 45 44 43 43 43 42 43 42 42 41 41 42 42 43 43 44 44 45 43 44 45 45 45 44 44 44 44 43 43 42 43 42 42 41 41
46 45 45 45 45 45 44 43 44 43 42 42 42 42 43 42 41 40 40 39 41 42 43 43 42 43 43 43 45 44 43 44 44 44 44 42 42 42 42 41 41 40
43 43 44 44 44 44 43 42 42 42 40 41 42 42 41 41 39 38 38 39 42 41 42 42 42 43 44 44 44 43 43 43 43 43 42 42 42 42 41 42 41 41
42 43 43 43 43 42 42 42 42 41 40 40 41 42 40 39 39 38 38 38 38 40 40 41 41 42 42 42 43 43 43 43 43 43 42 42 41 41 41 41 40 41
42 42 42 42 41 41 41 40 40 39 40 40 39 39 39 38 36 36 36 37 37 37 37 38 39 39 39 40 40 39 40 40 39 38 39 39 39 38 37 37 39 39
40 39 40 40 40 40 40 39 39 39 39 39 38 38 37 37 36 37 35 36 36 36 37 36 35 35 36 36 35 34 35 35 35 35 35 34 35 34 35 36 36 37
39 38 39 39 39 39 39 39 39 38 37 37 37 38 39 37 37 37 36 36 35 36 36 36 38 37 37 34 34 34 33 34 34 34 33 34 33 33 34 34 35 36
38 37 38 38 38 37 37 37 37 37 37 37 37 36 36 36 36 36 36 36 36 36 35 37 37 38 36 39 39 35 33 34 35 33 33 33 32 33 34 34 35 35
37 37 37 37 36 36 36 37 37 37 37 36 36 36 36 35 36 36 35 35 35 35 36 36 37 37 39 40 41 41 35 32 32 32 32 32 32 32 34 35 35 34
37 37 36 36 36 36 36 36 36 36 36 36 35 36 35 35 36 35 35 35 37 35 35 36 35 38 41 40 40 40 39 33 31 32 33 32 31 32 34 34 34 35
36 36 36 35 35 35 35 36 36 36 35 35 35 34 34 35 34 34 34 33 33 32 33 33 33 39 40 40 39 40 40 36 31 31 31 32 33 34 34 35 35 35
36 35 35 35 35 35 35 35 35 34 34 34 34 34 34 33 33 33 32 31 31 32 32 32 32 38 40 39 39 39 40 38 33 33 34 34 35 35 36 36 35 35
35 35 34 34 34 34 34 34 33 33 33 33 33 32 32 31 31 31 31 30 31 33 32 31 34 39 39 39 39 39 39 38 35 35 35 34 34 33 33 33 34 36
35 34 34 33 33 33 33 32 32 32 32 31 31 31 29 30 30 31 31 32 34 34 33 32 32 39 38 38 38 38 38 33 31 32 31 31 32 33 33 33 32 32
34 34 33 32 32 32 31 31 31 31 30 28 30 30 29 30 29 31 32 33 34 33 33 33 33 36 38 38 38 38 35 27 29 28 28 28 29 30 31 32 32 31
33 32 32 31 31 31 30 30 30 29 29 27 29 28 29 29 30 31 32 31 31 32 33 33 34 34 37 37 37 38 35 31 30 27 26 27 30 30 31 31 32 33
31 31 31 30 30 29 29 29 29 29 28 28 28 27 28 30 32 31 31 31 33 34 34 33 33 34 36 37 37 37 35 31 30 26 25 27 29 29 30 31 31 32
30 29 29 29 28 27 27 27 28 27 27 26 25 27 28 30 30 32 32 33 34 34 33 32 33 33 34 37 37 37 36 31 29 27 29 30 30 30 30 31 31 31
MSLP
1018.56 1018.74 1018.94 1019.14 1019.30 1019.40 1019.46 1019.56 1019.72 1019.94 1020.08 1020.14 1020.30 1020.48 1020.62 1020.78 1020.90 1021.06 1021.22 1021.34 1021.52 1021.70 1021.84 1021.96 1022.12 1022.28 1022.50 1022.70 1022.84 1022.98 1023.10 1023.18 1023.32 1023.50 1023.66 1023.88 1024.10 1024.24 1024.36 1024.46 1024.54 1024.56
1018.34 1018.52 1018.72 1018.90 1019.06 1019.16 1019.24 1019.30 1019.46 1019.62 1019.86 1020.04 1020.24 1020.44 1020.60 1020.76 1020.94 1021.06 1021.22 1021.38 1021.56 1021.72 1021.82 1021.92 1022.02 1022.18 1022.36 1022.52 1022.66 1022.82 1023.00 1023.16 1023.30 1023.44 1023.58 1023.74 1023.88 1024.06 1024.24 1024.32 1024.36 1024.40
1018.16 1018.34 1018.50 1018.68 1018.88 1019.06 1019.22 1019.34 1019.50 1019.70 1019.88 1020.06 1020.26 1020.44 1020.66 1020.84 1021.06 1021.20 1021.36 1021.50 1021.70 1021.88 1021.98 1022.02 1022.02 1022.06 1022.16 1022.34 1022.50 1022.66 1022.86 1023.04 1023.24 1023.32 1023.42 1023.60 1023.78 1023.98 1024.12 1024.20 1024.26 1024.28
1017.98 1018.14 1018.36 1018.60 1018.80 1019.02 1019.24 1019.42 1019.64 1019.80 1019.96 1020.14 1020.32 1020.50 1020.72 1020.96 1021.16 1021.34 1021.48 1021.62 1021.82 1022.00 1022.08 1022.12 1022.16 1022.20 1022.22 1022.30 1022.42 1022.58 1022.74 1022.88 1022.96 1023.06 1023.22 1023.46 1023.66 1023.82 1023.94 1024.08 1024.16 1024.26
1017.82 1018.08 1018.34 1018.56 1018.78 1019.02 1019.28 1019.54 1019.74 1019.90 1020.06 1020.22 1020.38 1020.58 1020.80 1021.04 1021.24 1021.44 1021.58 1021.74 1021.94 1022.12 1022.18 1022.20 1022.24 1022.32 1022.36 1022.42 1022.54 1022.66 1022.78 1022.86 1023.00 1023.14 1023.34 1023.54 1023.72 1023.88 1023.98 1024.10 1024.16 1024.22
1017.90 1018.12 1018.36 1018.58 1018.82 1019.04 1019.30 1019.52 1019.72 1019.94 1020.12 1020.30 1020.46 1020.64 1020.82 1021.00 1021.22 1021.46 1021.66 1021.88 1022.06 1022.18 1022.22 1022.24 1022.30 1022.36 1022.46 1022.54 1022.62 1022.74 1022.86 1023.00 1023.14 1023.28 1023.50 1023.68 1023.86 1023.98 1024.08 1024.14 1024.16 1024.16
1017.88 1018.12 1018.40 1018.66 1018.92 1019.12 1019.34 1019.54 1019.76 1019.96 1020.14 1020.34 1020.54 1020.72 1020.84 1021.00 1021.22 1021.50 1021.78 1021.98 1022.14 1022.22 1022.26 1022.32 1022.36 1022.44 1022.50 1022.60 1022.70 1022.84 1022.94 1023.04 1023.18 1023.30 1023.48 1023.66 1023.84 1023.96 1024.10 1024.18 1024.20 1024.18
1017.92 1018.20 1018.44 1018.72 1018.94 1019.16 1019.34 1019.60 1019.84 1020.04 1020.28 1020.46 1020.64 1020.82 1020.88 1021.06 1021.30 1021.64 1021.88 1022.08 1022.20 1022.24 1022.28 1022.34 1022.40 1022.46 1022.56 1022.64 1022.78 1022.90 1023.00 1023.08 1023.20 1023.32 1023.48 1023.66 1023.80 1023.90 1024.02 1024.16 1024.24 1024.22
1017.96 1018.24 1018.52 1018.74 1018.98 1019.20 1019.42 1019.68 1019.94 1020.18 1020.36 1020.54 1020.74 1020.88 1020.98 1021.14 1021.46 1021.76 1022.00 1022.10 1022.18 1022.30 1022.36 1022.44 1022.54 1022.60 1022.66 1022.72 1022.86 1023.00 1023.12 1023.22 1023.30 1023.44 1023.58 1023.72 1023.82 1023.92 1023.96 1024.00 1024.00 1024.02
1018.06 1018.36 1018.54 1018.78 1019.00 1019.26 1019.50 1019.76 1020.04 1020.28 1020.42 1020.58 1020.74 1020.90 1021.06 1021.32 1021.60 1021.86 1021.98 1022.08 1022.24 1022.36 1022.50 1022.62 1022.72 1022.78 1022.86 1022.90 1022.98 1023.08 1023.18 1023.30 1023.38 1023.50 1023.62 1023.72 1023.88 1023.96 1024.00 1024.02 1023.98 1023.96
1018.20 1018.42 1018.58 1018.80 1019.02 1019.30 1019.58 1019.86 1020.12 1020.34 1020.50 1020.64 1020.78 1020.92 1021.16 1021.46 1021.76 1021.92 1022.04 1022.14 1022.30 1022.42 1022.52 1022.62 1022.72 1022.80 1022.92 1023.00 1023.08 1023.14 1023.28 1023.40 1023.54 1023.64 1023.72 1023.80 1023.84 1023.90 1023.90 1023.88 1023.88 1023.90
1018.34 1018.54 1018.64 1018.80 1019.06 1019.36 1019.64 1019.90 1020.20 1020.40 1020.58 1020.68 1020.72 1020.90 1021.22 1021.54 1021.80 1021.96 1022.04 1022.14 1022.26 1022.36 1022.44 1022.54 1022.66 1022.76 1022.94 1023.06 1023.16 1023.24 1023.32 1023.42 1023.52 1023.58 1023.66 1023.70 1023.76 1023.78 1023.78 1023.78 1023.80 1023.76
1018.50 1018.64 1018.72 1018.88 1019.14 1019.46 1019.78 1020.06 1020.28 1020.50 1020.64 1020.70 1020.72 1020.92 1021.30 1021.62 1021.82 1021.92 1022.00 1022.12 1022.24 1022.38 1022.52 1022.64 1022.74 1022.84 1022.96 1023.06 1023.12 1023.20 1023.28 1023.38 1023.46 1023.54 1023.58 1023.60 1023.60 1023.60 1023.64 1023.68 1023.68 1023.68
1018.64 1018.82 1018.94 1019.12 1019.40 1019.68 1019.92 1020.16 1020.42 1020.58 1020.64 1020.68 1020.80 1021.10 1021.40 1021.58 1021.72 1021.84 1021.98 1022.14 1022.30 1022.46 1022.62 1022.74 1022.88 1022.98 1023.04 1023.10 1023.24 1023.34 1023.46 1023.50 1023.54 1023.56 1023.58 1023.60 1023.62 1023.62 1023.64 1023.62 1023.60 1023.58
1018.88 1019.14 1019.24 1019.38 1019.60 1019.82 1020.04 1020.26 1020.46 1020.52 1020.54 1020.64 1020.92 1021.22 1021.42 1021.50 1021.62 1021.78 1021.96 1022.14 1022.34 1022.50 1022.68 1022.82 1022.94 1023.04 1023.14 1023.26 1023.34 1023.46 1023.60 1023.66 1023.66 1023.64 1023.64 1023.64 1023.60 1023.60 1023.56 1023.54 1023.48 1023.44
1019.06 1019.26 1019.40 1019.60 1019.78 1019.96 1020.14 1020.30 1020.36 1020.38 1020.42 1020.72 1021.06 1021.28 1021.36 1021.46 1021.60 1021.78 1021.90 1022.12 1022.34 1022.54 1022.70 1022.86 1023.00 1023.10 1023.24 1023.30 1023.44 1023.60 1023.70 1023.74 1023.74 1023.70 1023.68 1023.64 1023.62 1023.54 1023.44 1023.38 1023.34 1023.30
1019.08 1019.30 1019.54 1019.72 1019.88 1020.02 1020.14 1020.20 1020.20 1020.22 1020.46 1020.78 1021.02 1021.20 1021.34 1021.46 1021.54 1021.70 1021.94 1022.18 1022.42 1022.64 1022.82 1022.98 1023.12 1023.32 1023.42 1023.52 1023.54 1023.60 1023.66 1023.74 1023.74 1023.72 1023.70 1023.68 1023.58 1023.48 1023.34 1023.20 1023.16 1023.16
1019.00 1019.28 1019.52 1019.72 1019.80 1019.92 1020.06 1020.04 1019.90 1020.10 1020.46 1020.72 1020.94 1021.12 1021.30 1021.40 1021.52 1021.76 1022.02 1022.30 1022.56 1022.82 1023.02 1023.18 1023.46 1023.70 1023.74 1023.76 1023.72 1023.66 1023.66 1023.72 1023.78 1023.76 1023.70 1023.62 1023.52 1023.40 1023.28 1023.20 1023.10 1023.04
1018.92 1019.14 1019.38 1019.56 1019.72 1019.92 1019.98 1019.70 1019.66 1020.10 1020.48 1020.72 1020.94 1021.16 1021.32 1021.50 1021.72 1021.88 1022.16 1022.46 1022.72 1022.96 1023.18 1023.40 1023.66 1023.78 1023.84 1023.82 1023.76 1023.70 1023.68 1023.72 1023.78 1023.74 1023.68 1023.56 1023.46 1023.36 1023.26 1023.14 1023.06 1023.00
1018.88 1019.02 1019.26 1019.52 1019.74 1019.88 1019.72 1019.52 1019.76 1020.24 1020.64 1020.88 1021.06 1021.26 1021.54 1021.82 1021.96 1022.12 1022.38 1022.64 1022.86 1023.04 1023.24 1023.42 1023.62 1023.80 1023.84 1023.86 1023.80 1023.76 1023.74 1023.76 1023.78 1023.72 1023.66 1023.56 1023.44 1023.34 1023.22 1023.10 1023.00 1022.92
1019.04 1019.10 1019.30 1019.56 1019.74 1019.76 1019.62 1019.74 1020.08 1020.44 1020.72 1021.02 1021.22 1021.48 1021.78 1022.00 1022.12 1022.26 1022.48 1022.70 1022.92 1023.12 1023.28 1023.40 1023.66 1023.70 1023.84 1023.90 1023.86 1023.80 1023.76 1023.80 1023.82 1023.76 1023.68 1023.58 1023.48 1023.36 1023.22 1023.12 1023.02 1022.90
1019.08 1019.24 1019.42 1019.58 1019.68 1019.72 1019.76 1020.08 1020.42 1020.68 1020.98 1021.26 1021.46 1021.72 1021.98 1022.14 1022.28 1022.36 1022.56 1022.82 1023.06 1023.28 1023.38 1023.40 1023.54 1023.58 1023.76 1023.80 1023.80 1023.80 1023.86 1023.92 1023.86 1023.80 1023.74 1023.66 1023.54 1023.42 1023.30 1023.18 1023.04 1022.92
1019.12 1019.28 1019.46 1019.62 1019.70 1019.74 1020.04 1020.38 1020.64 1021.00 1021.34 1021.56 1021.64 1021.88 1022.08 1022.30 1022.44 1022.56 1022.72 1022.92 1023.16 1023.36 1023.46 1023.50 1023.54 1023.66 1023.72 1023.74 1023.82 1023.86 1023.96 1023.98 1023.90 1023.82 1023.72 1023.64 1023.60 1023.52 1023.38 1023.24 1023.10 1022.92
1019.22 1019.38 1019.44 1019.64 1019.74 1019.92 1020.32 1020.72 1021.02 1021.36 1021.68 1021.82 1021.80 1022.02 1022.26 1022.52 1022.58 1022.66 1022.78 1022.92 1023.06 1023.20 1023.36 1023.50 1023.58 1023.66 1023.76 1023.84 1023.92 1023.92 1023.94 1023.92 1023.84 1023.78 1023.78 1023.72 1023.70 1023.58 1023.42 1023.30 1023.12 1022.90
1019.42 1019.56 1019.60 1019.70 1019.96 1020.40 1020.66 1020.88 1021.20 1021.52 1021.82 1021.96 1022.14 1022.30 1022.46 1022.58 1022.64 1022.74 1022.86 1022.92 1022.98 1023.10 1023.28 1023.42 1023.56 1023.80 1023.92 1024.04 1024.06 1023.96 1023.92 1023.92 1023.92 1023.98 1023.98 1023.88 1023.78 1023.64 1023.40 1023.24 1023.06 1022.88
1019.70 1019.78 1019.92 1020.06 1020.38 1020.78 1021.04 1021.24 1021.48 1021.70 1021.92 1022.10 1022.28 1022.46 1022.56 1022.62 1022.74 1022.80 1022.84 1022.92 1023.02 1023.14 1023.20 1023.46 1023.80 1023.98 1024.14 1024.18 1024.02 1023.98 1024.02 1024.20 1024.22 1024.20 1024.14 1023.98 1023.80 1023.60 1023.36 1023.20 1023.08 1022.92
Wind_Speed
7 6 7 7 7 7 6 6 7 8 7 5 5 4 5 4 4 4 3 2 1 1 1 4 5 4 5 5 5 5 4 5 6 6 6 5 4 4 5 5 5 5
7 7 6 6 6 5 4 4 4 5 4 3 3 3 3 4 3 4 3 2 1 0 0 0 2 4 5 5 5 5 4 3 4 3 4 4 4 4 5 6 6 5
6 7 7 6 6 5 4 4 4 3 4 3 3 3 3 4 4 3 3 2 1 1 1 0 0 1 2 4 5 5 5 4 4 4 4 4 3 4 4 5 5 6
6 6 6 5 5 6 5 5 4 3 3 4 4 3 4 3 3 3 2 3 1 0 0 1 1 1 2 2 2 2 3 4 4 3 2 1 2 2 3 4 5 5
7 6 5 5 4 5 5 5 5 4 4 4 4 4 5 4 3 2 2 1 1 0 0 1 2 3 3 3 2 2 2 1 1 2 1 1 1 2 4 4 4 5
5 5 5 5 5 6 6 5 5 4 4 4 4 5 4 4 4 4 3 1 1 1 1 2 2 3 3 3 3 2 2 2 2 2 1 1 2 2 3 4 5 5
7 6 6 6 5 5 5 4 4 4 4 4 4 4 4 5 4 4 2 2 1 1 1 2 2 1 2 2 2 2 2 1 1 1 1 3 3 4 3 4 5 6
7 5 6 6 6 5 5 5 4 4 4 4 5 4 4 4 4 4 3 2 2 2 2 2 2 1 1 2 1 1 1 0 1 1 2 3 3 3 3 4 3 6
7 6 6 6 6 5 5 5 5 4 4 4 4 4 4 4 4 4 3 3 3 3 3 3 3 3 3 3 2 1 1 2 2 1 2 3 3 3 3 3 4 5
7 6 7 6 7 6 6 5 5 4 4 4 4 5 6 4 4 3 3 4 4 3 3 3 3 3 3 3 3 2 2 2 2 2 3 3 3 3 3 3 4 4
6 6 7 7 6 6 6 6 6 5 4 5 5 6 5 5 4 4 4 4 4 3 2 2 2 2 1 0 1 2 2 2 2 2 2 2 3 3 3 3 4 4
6 6 7 7 7 7 7 6 6 5 5 4 5 6 5 4 4 3 3 4 3 2 1 2 3 3 2 3 1 1 1 2 3 3 3 3 3 3 3 3 4 5
6 6 6 7 7 7 6 6 6 5 5 5 5 6 6 5 4 4 4 4 4 4 3 3 2 2 2 1 1 1 0 0 1 1 2 2 2 3 4 4 5 5
5 5 5 6 6 6 6 6 5 5 5 6 6 6 5 5 4 4 4 4 4 4 3 3 3 3 2 2 3 3 3 2 2 2 3 3 2 3 4 4 4 5
5 4 5 6 6 6 6 6 6 6 6 6 6 6 5 5 5 4 4 4 3 3 2 2 2 1 2 3 2 2 3 3 3 3 3 4 4 4 4 4 5 5
6 5 5 6 6 7 6 6 6 6 7 7 6 5 5 5 5 5 4 4 4 2 2 2 1 3 4 6 2 0 1 2 3 3 3 3 4 4 5 5 5 4
6 6 6 6 6 6 6 6 7 7 7 7 6 5 5 5 5 5 4 4 3 2 1 1 2 3 6 2 1 1 1 1 2 3 3 3 4 4 5 6 5 4
7 7 7 6 6 6 6 6 7 8 7 6 6 6 4 5 6 5 4 4 3 2 1 1 4 5 5 3 2 2 2 1 2 3 3 3 4 4 5 4 6 6
7 8 7 7 6 6 5 6 8 8 7 6 6 5 5 6 5 5 5 4 4 4 4 3 3 6 7 7 7 7 7 5 3 3 3 4 4 4 5 5 5 5
7 7 7 6 6 5 6 8 8 8 6 5 5 6 6 5 5 5 5 4 4 4 4 3 3 8 10 10 10 9 10 7 4 4 4 4 4 5 5 5 5 5
6 7 8 6 6 6 7 8 8 7 6 5 6 5 5 4 4 5 4 4 4 4 3 3 4 9 8 9 9 9 10 7 3 3 3 3 4 4 4 4 5 5
7 7 7 6 7 7 8 8 7 6 6 4 4 5 4 4 4 4 4 3 3 3 2 2 3 9 7 8 9 9 9 4 3 3 3 3 3 4 4 4 4 4
6 8 7 7 7 8 8 7 7 6 5 3 6 5 4 4 3 2 2 2 2 2 3 3 3 5 8 8 8 8 5 3 3 2 3 3 3 4 4 4 4 5
6 7 8 8 8 8 8 6 6 5 5 3 6 4 4 2 1 2 1 1 1 1 3 3 3 6 9 8 8 8 5 3 3 3 3 3 3 3 4 4 5 9
6 6 7 8 8 7 7 7 6 5 4 4 4 3 1 0 1 1 2 2 1 2 5 4 4 6 8 8 8 9 6 4 4 3 3 3 4 4 4 5 4 5
5 7 7 8 8 7 6 6 5 5 5 5 4 3 3 4 3 3 3 2 1 2 2 4 5 4 4 7 9 11 11 6 5 3 4 5 5 5 6 4 3 4
Wind_Direction
175 178 173 170 176 183 189 179 176 178 186 176 161 177 165 176 142 134 131 99 78 104 156 161 171 170 167 171 178 177 184 181 185 184 192 186 190 207 226 234 238 237
178 170 168 163 164 166 167 151 144 141 148 139 138 122 107 100 91 102 90 79 57 21 317 167 158 162 170 173 173 174 181 180 194 182 186 188 203 202 221 230 238 248
171 163 160 164 165 157 142 121 119 121 133 151 120 114 107 106 101 89 93 96 83 39 27 40 137 156 153 165 174 176 178 181 194 197 185 192 185 187 214 230 245 244
164 154 152 152 147 148 135 127 123 125 124 127 142 132 117 105 96 96 96 104 120 154 8 27 38 61 78 70 98 144 171 178 192 176 175 161 184 214 245 251 258 269
151 143 143 140 135 137 136 142 152 150 153 157 129 118 113 118 128 127 103 90 102 111 89 70 54 53 57 63 79 60 41 57 80 118 128 212 241 214 249 254 264 267
137 137 142 145 144 137 141 145 154 153 152 131 149 138 144 139 131 117 118 112 138 132 103 92 74 51 59 55 53 54 55 46 58 71 30 294 289 278 279 271 271 268
146 142 142 138 134 134 134 140 141 142 142 149 124 125 118 111 110 120 113 123 107 100 112 106 93 61 48 52 51 44 32 42 11 17 323 303 296 290 286 284 283 281
143 138 136 132 135 137 136 138 133 131 125 109 125 131 115 110 112 109 108 109 93 74 76 79 85 94 91 82 62 37 351 41 238 256 264 274 275 270 267 265 283 289
136 137 136 137 134 137 129 131 128 122 121 128 132 126 107 116 128 134 152 132 117 86 65 56 56 60 50 56 47 43 32 12 15 356 300 287 289 279 271 254 260 267
133 138 136 140 140 143 137 137 128 127 124 124 123 114 110 99 99 110 96 106 97 84 79 51 40 39 25 31 25 31 26 5 352 339 329 334 328 317 314 303 283 283
140 145 145 145 143 139 138 131 128 125 120 126 115 109 109 106 97 92 94 97 107 120 126 144 164 167 155 100 26 44 43 28 7 355 338 323 316 310 307 300 296 291
151 153 155 149 139 135 136 134 131 131 130 120 124 121 106 105 117 115 124 123 123 127 120 99 84 79 56 45 26 348 319 278 260 253 245 248 271 278 282 281 280 281
156 158 148 139 135 133 129 125 126 134 127 118 105 107 113 112 112 101 90 90 78 73 67 68 62 76 95 83 60 34 13 11 326 313 286 268 252 258 267 271 272 272
146 144 132 125 124 124 124 126 128 124 120 115 108 109 111 116 115 108 100 91 83 83 66 75 68 57 46 41 38 34 23 354 320 293 294 300 296 290 279 274 271 273
130 123 119 119 123 124 125 129 130 128 118 109 105 108 110 108 104 99 93 86 91 100 83 87 102 112 94 79 51 6 12 349 334 330 325 314 301 291 281 274 276 272
132 128 127 126 124 129 133 131 129 120 111 105 106 109 103 99 96 96 92 97 89 83 96 105 131 104 93 80 92 154 313 305 307 303 294 286 283 290 290 281 271 269
135 135 131 130 134 129 130 128 123 114 106 105 102 100 101 101 97 84 83 84 92 91 79 101 107 92 100 94 69 310 243 263 281 285 283 280 277 274 283 289 290 285
141 137 132 134 129 127 130 130 114 102 98 99 96 89 88 85 80 83 81 79 68 62 78 97 86 102 97 82 49 29 355 294 278 277 282 280 278 277 278 287 291 296
142 136 132 127 127 130 132 111 99 92 89 85 85 85 79 79 79 78 77 67 73 66 51 65 101 71 56 42 29 19 6 356 327 298 298 291 290 284 282 284 287 293
138 131 125 124 126 124 113 97 91 91 93 93 86 75 79 83 81 83 76 64 63 65 51 44 43 52 39 26 17 11 2 354 326 312 294 285 287 288 292 301 301 307
129 124 122 121 117 111 98 90 92 91 82 80 88 95 96 98 95 86 83 75 58 58 55 37 77 63 46 28 16 11 4 354 323 311 310 303 298 296 299 299 301 301
131 127 122 119 115 103 97 95 91 94 95 87 83 82 79 81 64 83 92 92 100 90 90 63 69 61 44 29 18 12 6 336 330 316 304 302 303 309 306 307 308 309
134 130 125 119 115 106 102 103 104 94 82 80 89 81 80 79 87 94 107 103 103 110 101 79 57 58 50 27 20 17 5 340 330 332 324 326 321 319 320 320 323 323
129 130 126 121 113 112 111 106 101 94 89 84 100 92 83 87 93 68 57 129 119 98 106 94 65 69 52 29 31 27 13 351 338 353 337 335 329 310 315 316 307 307
121 119 119 116 111 109 112 111 108 109 106 90 85 96 117 148 104 98 73 50 78 126 100 89 67 74 51 37 32 30 29 6 358 355 332 334 327 316 306 302 303 310
108 110 105 110 113 110 102 106 108 93 91 90 82 93 86 72 65 69 64 28 25 111 108 101 73 64 63 37 33 31 28 18 345 357 349 341 331 324 325 323 318 312